1508871600.09,6083,10.31,73934.3,-5.97,-34.71,-36.49,0,*6F
1508871601.3,6084,10.31,73932.8,-5.95,-34.89,-36.67,0,*61
1508871602.49,6085,10.31,73932.0,-5.97,-35.17,-36.85,0,*68
1508871603.7,6086,10.31,73936.3,-5.95,-34.89,-36.67,0,*63
1508871604.91,6087,10.31,73934.5,-5.95,-35.71,-37.33,0,*64
1508871606.18,6088,10.31,73936.8,-5.93,-35.41,-36.91,0,*67
1508871607.41,6089,10.31,73934.8,-5.95,-35.17,-36.91,0,*63
1508871608.61,6090,10.31,73936.0,-5.95,-35.17,-36.85,0,*6E
1508871609.82,6091,10.31,73938.0,-5.91,-34.89,-36.55,0,*60
1508871611.05,6092,10.31,73932.8,-5.93,-34.89,-36.73,0,*65
1508871612.27,6093,10.31,73934.5,-5.91,-35.35,-37.03,0,*66
1508871613.52,6094,10.31,73936.0,-5.91,-35.35,-36.91,0,*6B
1508871614.74,6095,10.31,73936.3,-5.91,-35.13,-36.79,0,*68
1508871615.97,6096,10.31,73934.3,-5.91,-35.13,-36.79,0,*6B
1508871617.2,6097,10.31,73938.5,-5.93,-34.89,-36.55,0,*64
1508871618.46,6098,10.31,73936.3,-5.91,-35.35,-37.09,0,*67
1508871619.68,6099,10.31,73934.5,-5.91,-35.29,-36.91,0,*6B
1508871620.89,6100,10.31,73932.8,-5.91,-35.29,-37.03,0,*60
1508871622.11,6101,10.31,73938.3,-5.91,-35.35,-37.03,0,*6C
1508871623.34,6102,10.31,73932.5,-5.91,-35.17,-36.91,0,*65
1508871624.57,6103,10.31,73938.0,-5.91,-34.83,-36.43,0,*67
1508871625.8,6104,10.31,73932.5,-5.89,-34.59,-36.19,0,*61
1508871627.05,6105,10.31,73934.5,-5.89,-34.89,-36.61,0,*62
1508871628.28,6106,10.31,73934.5,-5.87,-35.41,-37.15,0,*68
1508871629.5,6107,10.31,73936.8,-5.87,-35.41,-37.03,0,*6E
1508871630.75,6108,10.31,73934.0,-5.89,-35.47,-37.21,0,*69
1508871631.98,6109,10.31,73934.0,-5.89,-35.29,-36.97,0,*6C
1508871633.23,6110,10.31,73936.8,-5.89,-35.23,-36.97,0,*6E
1508871634.45,6111,10.31,73932.0,-5.89,-35.59,-37.33,0,*6D
1508871635.7,6112,10.31,73934.5,-5.89,-35.65,-37.33,0,*61
1508871636.93,6113,10.31,73934.5,-5.87,-35.71,-37.39,0,*61
1508871638.15,6114,10.31,73934.5,-5.87,-35.23,-37.03,0,*68
1508871639.38,6115,10.31,73932.5,-5.87,-35.71,-37.51,0,*69
1508871640.63,6116,10.31,73936.0,-5.89,-35.41,-37.03,0,*60
1508871641.86,6117,10.31,73934.3,-5.89,-35.29,-37.03,0,*6F
1508871643.11,6118,10.31,73932.8,-5.87,-35.41,-37.21,0,*60
1508871644.39,6119,10.31,73934.5,-5.89,-35.83,-37.51,0,*66
1508871645.61,6120,10.31,73932.0,-5.89,-35.71,-37.33,0,*65
1508871646.86,6121,10.31,73932.0,-5.89,-35.23,-36.97,0,*6C
1508871648.13,6122,10.31,73932.8,-5.89,-35.23,-36.79,0,*6F
1508871649.37,6123,10.31,73934.5,-5.87,-34.77,-36.61,0,*69
1508871650.6,6124,10.31,73932.3,-5.87,-34.89,-36.61,0,*6F
1508871651.83,6125,10.31,73932.8,-5.87,-34.77,-36.61,0,*6F
1508871653.06,6126,10.31,73932.5,-5.85,-35.01,-36.67,0,*68
1508871654.27,6127,10.31,73932.3,-5.83,-35.01,-36.55,0,*6E
1508871655.51,6128,10.31,73934.8,-5.85,-34.89,-36.67,0,*67
1508871656.75,6129,10.31,73932.5,-5.83,-35.23,-36.79,0,*6E
1508871657.98,6130,10.31,73932.8,-5.83,-34.65,-36.19,0,*63
1508871659.21,6131,10.31,73930.8,-5.83,-35.01,-36.91,0,*61
1508871660.42,6132,10.31,73934.0,-5.83,-35.01,-36.73,0,*6E
1508871661.65,6133,10.31,73928.0,-5.83,-34.83,-36.67,0,*61
1508871662.87,6134,10.31,73934.0,-5.83,-35.17,-36.79,0,*65
1508871664.08,6135,10.31,73930.5,-5.83,-34.71,-36.31,0,*69
1508871665.32,6136,10.31,73934.3,-5.79,-34.65,-36.31,0,*6A
1508871666.55,6137,10.31,73932.3,-5.79,-34.65,-36.43,0,*6E
1508871667.81,6138,10.31,73932.8,-5.77,-34.83,-36.31,0,*62
1508871669.07,6139,10.31,73930.8,-5.79,-34.95,-36.61,0,*6F
1508871670.33,6140,10.31,73932.5,-5.77,-34.65,-36.31,0,*65
1508871671.56,6141,10.31,73930.0,-5.77,-34.77,-36.43,0,*62
1508871672.8,6142,10.31,73926.5,-5.77,-35.01,-36.67,0,*67
1508871674.06,6143,10.31,73930.5,-5.77,-34.65,-36.31,0,*66
1508871675.31,6144,10.31,73930.8,-5.77,-34.41,-36.13,0,*67
1508871676.55,6145,10.31,73928.5,-5.75,-34.59,-36.25,0,*68
1508871677.81,6146,10.31,73934.8,-5.73,-34.95,-36.55,0,*6A
1508871679.03,6147,10.31,73934.3,-5.75,-34.71,-36.43,0,*60
1508871680.28,6148,10.31,73930.3,-5.73,-34.89,-36.61,0,*6E
1508871681.55,6149,10.31,73930.5,-5.73,-35.07,-36.79,0,*61
1508871682.81,6150,10.31,73932.0,-5.71,-34.83,-36.37,0,*6C
1508871684.07,6151,10.31,73932.5,-5.71,-34.83,-36.49,0,*64
1508871685.3,6152,10.31,73930.3,-5.71,-34.71,-36.37,0,*63
1508871686.56,6153,10.31,73926.8,-5.69,-34.83,-36.43,0,*65
1508871687.8,6154,10.31,73928.5,-5.71,-34.71,-36.37,0,*65
1508871689.03,6155,10.31,73932.0,-5.69,-34.77,-36.31,0,*6D
1508871690.32,6156,10.31,73930.0,-5.69,-34.65,-36.25,0,*68
1508871691.57,6157,10.31,73930.0,-5.71,-34.83,-36.37,0,*6B
1508871692.83,6158,10.31,73930.0,-5.69,-34.83,-36.43,0,*6E
1508871694.11,6159,10.31,73930.0,-5.69,-34.83,-36.49,0,*65
1508871695.37,6160,10.31,73934.0,-5.69,-34.83,-36.55,0,*62
1508871696.63,6161,10.31,73928.3,-5.69,-34.65,-36.31,0,*69
1508871697.86,6162,10.31,73934.3,-5.67,-34.95,-36.43,0,*6E
1508871699.12,6163,10.31,73928.8,-5.67,-34.95,-36.49,0,*65
1508871700.32,6164,10.31,73930.5,-5.67,-35.13,-36.73,0,*64
1508871701.55,6165,10.31,73932.5,-5.65,-35.13,-36.67,0,*62
1508871702.75,6166,10.31,73928.3,-5.67,-35.13,-36.73,0,*66
1508871703.97,6167,10.31,73930.5,-5.67,-35.41,-37.03,0,*66
1508871705.2,6168,10.31,73924.5,-5.67,-34.95,-36.67,0,*62
1508871706.43,6169,10.31,73928.5,-5.67,-34.83,-36.43,0,*62
1508871707.68,6170,10.31,73928.5,-5.65,-35.29,-36.91,0,*66
1508871708.89,6171,10.31,73930.3,-5.67,-35.13,-36.55,0,*64
1508871710.14,6172,10.31,73928.5,-5.65,-34.83,-36.43,0,*6A
1508871711.37,6173,10.31,73928.5,-5.65,-35.13,-36.73,0,*60
1508871712.59,6174,10.31,73930.8,-5.65,-35.13,-36.73,0,*67
1508871713.83,6175,10.31,73930.5,-5.65,-35.01,-36.55,0,*61
1508871715.06,6176,10.31,73930.5,-5.63,-35.13,-36.61,0,*60
1508871716.26,6177,10.31,73930.0,-5.63,-35.29,-36.85,0,*62
1508871717.47,6178,10.31,73924.5,-5.63,-35.13,-36.67,0,*68
1508871718.73,6179,10.31,73930.3,-5.63,-35.07,-36.61,0,*6A
1508871719.96,6180,10.31,73930.5,-5.63,-34.95,-36.43,0,*66
1508871721.22,6181,10.31,73924.0,-5.63,-34.95,-36.49,0,*6D
1508871722.48,6182,10.31,73930.0,-5.63,-35.07,-36.61,0,*6E
1508871723.73,6183,10.31,73930.8,-5.63,-35.23,-36.79,0,*60
1508871724.95,6184,10.31,73926.8,-5.63,-35.13,-36.79,0,*64
1508871726.24,6185,10.31,73928.3,-5.61,-34.95,-36.49,0,*6B
1508871727.49,6186,10.31,73928.3,-5.63,-34.95,-36.49,0,*6A
1508871728.78,6187,10.31,73928.5,-5.61,-34.95,-36.61,0,*63
1508871730.01,6188,10.31,73928.8,-5.61,-35.13,-36.67,0,*65
1508871731.21,6189,10.31,73926.3,-5.63,-35.71,-37.33,0,*62
1508871732.49,6190,10.31,73930.3,-5.61,-35.35,-36.79,0,*67
1508871733.72,6191,10.31,73928.5,-5.61,-35.13,-36.67,0,*6D
1508871734.95,6192,10.31,73926.0,-5.61,-35.29,-36.85,0,*6B
1508871736.24,6193,10.31,73924.8,-5.61,-34.95,-36.49,0,*6C
1508871737.52,6194,10.31,73928.3,-5.61,-35.07,-36.61,0,*6B
1508871738.78,6195,10.31,73926.0,-5.57,-35.07,-36.55,0,*68
1508871740.03,6196,10.31,73930.0,-5.57,-35.17,-36.79,0,*64
1508871741.31,6197,10.31,73928.0,-5.57,-35.07,-36.61,0,*6D
1508871742.59,6198,10.31,73930.5,-5.57,-35.23,-36.79,0,*6D
1508871743.81,6199,10.31,73926.5,-5.57,-35.17,-36.73,0,*61
1508871745.06,6200,10.31,73930.0,-5.57,-35.65,-37.33,0,*62
1508871746.29,6201,10.31,73928.0,-5.57,-35.29,-36.73,0,*6E
1508871747.54,6202,10.31,73926.3,-5.57,-35.23,-36.73,0,*67
1508871748.79,6203,10.31,73930.0,-5.57,-35.41,-36.97,0,*68
1508871750.01,6204,10.31,73930.8,-5.57,-35.47,-36.97,0,*69
1508871751.26,6205,10.31,73928.0,-5.57,-35.17,-36.61,0,*64
1508871752.53,6206,10.31,73926.3,-5.57,-35.41,-36.79,0,*6D
1508871753.77,6207,10.31,73926.8,-5.57,-35.41,-36.97,0,*6C
1508871755.0,6208,10.31,73924.0,-5.57,-35.59,-36.97,0,*6A
1508871756.22,6209,10.31,73928.3,-5.57,-35.47,-36.97,0,*64
1508871757.47,6210,10.31,73926.8,-5.57,-35.41,-36.97,0,*6A
1508871758.68,6211,10.31,73928.0,-5.55,-35.41,-36.85,0,*6A
1508871759.93,6212,10.31,73930.3,-5.57,-35.29,-36.79,0,*66
1508871761.17,6213,10.31,73924.8,-5.57,-35.29,-36.73,0,*6D
1508871762.4,6214,10.31,73924.0,-5.57,-35.29,-36.73,0,*6A
1508871763.6,6215,10.31,73924.3,-5.55,-35.13,-36.73,0,*60
1508871764.83,6216,10.31,73928.3,-5.57,-35.17,-36.55,0,*61
1508871766.08,6217,10.31,73928.5,-5.57,-35.47,-37.09,0,*6D
1508871767.32,6218,10.31,73924.5,-5.55,-35.53,-36.91,0,*65
1508871768.56,6219,10.31,73926.8,-5.55,-35.53,-36.91,0,*64
1508871769.78,6220,10.31,73930.0,-5.55,-35.41,-36.85,0,*68
1508871771.01,6221,10.31,73926.8,-5.55,-35.23,-36.67,0,*61
1508871772.23,6222,10.31,73930.0,-5.55,-35.23,-37.03,0,*61
1508871773.5,6223,10.31,73926.8,-5.57,-35.41,-36.91,0,*6C
1508871774.73,6224,10.31,73928.5,-5.55,-35.35,-36.67,0,*63
1508871775.95,6225,10.31,73926.8,-5.55,-35.71,-37.09,0,*6B
1508871777.18,6226,10.31,73928.5,-5.55,-35.77,-37.21,0,*64
1508871778.43,6227,10.31,73928.0,-5.55,-35.41,-36.91,0,*6A
1508871779.68,6228,10.31,73926.3,-5.57,-35.47,-36.91,0,*61
1508871780.89,6229,10.31,73924.0,-5.55,-35.53,-37.03,0,*6D
1508871782.12,6230,10.31,73924.5,-5.55,-35.41,-36.73,0,*60
1508871783.34,6231,10.31,73930.8,-5.55,-35.71,-37.09,0,*6E
1508871784.57,6232,10.31,73928.5,-5.55,-35.77,-37.21,0,*61
1508871785.8,6233,10.31,73928.0,-5.55,-35.89,-37.21,0,*61
1508871787.06,6234,10.31,73928.3,-5.55,-35.95,-37.39,0,*62
1508871788.31,6235,10.31,73926.5,-5.57,-35.77,-37.09,0,*6E
1508871789.58,6236,10.31,73926.3,-5.57,-35.65,-37.09,0,*6E
1508871790.83,6237,10.31,73926.8,-5.57,-35.47,-36.91,0,*6F
1508871792.06,6238,10.31,73926.8,-5.55,-35.59,-37.09,0,*6D
1508871793.28,6239,10.31,73926.5,-5.57,-35.77,-37.27,0,*6E
1508871794.54,6240,10.31,73926.8,-5.57,-35.83,-37.33,0,*6E
1508871795.77,6241,10.31,73928.0,-5.55,-35.77,-37.09,0,*6F
1508871797.01,6242,10.31,73926.5,-5.57,-35.59,-36.91,0,*62
1508871798.23,6243,10.31,73926.5,-5.55,-35.41,-36.85,0,*6D
1508871799.48,6244,10.31,73928.0,-5.57,-35.65,-37.15,0,*66
1508871800.7,6245,10.31,73926.3,-5.55,-35.71,-36.91,0,*6D
1508871801.95,6246,10.31,73926.3,-5.57,-35.65,-36.97,0,*6F
1508871803.17,6247,10.31,73926.3,-5.57,-35.47,-36.85,0,*6D
1508871804.39,6248,10.31,73924.3,-5.57,-35.59,-36.97,0,*6E
1508871805.64,6249,10.31,73924.5,-5.57,-35.41,-36.97,0,*66
1508871806.88,6250,10.31,73926.3,-5.55,-35.41,-36.91,0,*6A
1508871808.13,6251,10.31,73924.3,-5.53,-35.53,-37.03,0,*64
1508871809.4,6252,10.31,73926.5,-5.53,-35.35,-36.91,0,*6D
1508871810.63,6253,10.31,73926.5,-5.55,-35.77,-37.21,0,*66
1508871811.83,6254,10.31,73928.8,-5.55,-35.71,-37.03,0,*67
1508871813.08,6255,10.31,73926.3,-5.55,-35.95,-37.09,0,*66
1508871814.34,6256,10.31,73928.5,-5.55,-35.95,-37.39,0,*66
1508871815.56,6257,10.31,73928.3,-5.55,-35.95,-37.45,0,*6C
1508871816.82,6258,10.31,73930.5,-5.55,-35.95,-37.39,0,*68
1508871818.07,6259,10.31,73928.5,-5.57,-36.13,-37.75,0,*6E
1508871819.32,6260,10.31,73926.0,-5.57,-35.83,-37.45,0,*6D
1508871820.54,6261,10.31,73926.8,-5.55,-35.95,-37.27,0,*6D
1508871821.77,6262,10.31,73924.8,-5.55,-35.71,-37.09,0,*68
1508871822.99,6263,10.31,73924.3,-5.55,-35.71,-37.09,0,*69
1508871824.22,6264,10.31,73926.8,-5.55,-35.77,-37.21,0,*62
1508871825.47,6265,10.31,73924.3,-5.57,-35.65,-36.97,0,*6E
1508871826.74,6266,10.31,73924.0,-5.57,-35.65,-37.09,0,*6B
1508871827.99,6267,10.31,73926.0,-5.57,-35.59,-37.09,0,*65
1508871829.21,6268,10.31,73924.0,-5.55,-35.53,-36.73,0,*6E
1508871830.43,6269,10.31,73926.5,-5.55,-35.41,-36.67,0,*69
1508871831.66,6270,10.31,73924.8,-5.55,-35.23,-36.73,0,*60
1508871832.86,6271,10.31,73926.3,-5.55,-35.59,-37.03,0,*6A
1508871834.11,6272,10.31,73928.0,-5.57,-35.47,-36.79,0,*68
1508871835.32,6273,10.31,73930.5,-5.55,-35.53,-36.85,0,*6D
1508871836.55,6274,10.31,73926.5,-5.53,-35.17,-36.67,0,*60
1508871837.77,6275,10.31,73932.5,-5.55,-35.41,-36.85,0,*68
1508871838.99,6276,10.31,73928.3,-5.53,-35.59,-37.03,0,*6B
1508871840.22,6277,10.31,73926.8,-5.51,-35.47,-36.79,0,*6B
1508871841.44,6278,10.31,73926.8,-5.51,-35.17,-36.61,0,*68
1508871842.66,6279,10.31,73926.8,-5.51,-35.17,-36.61,0,*69
1508871843.91,6280,10.31,73928.8,-5.53,-35.53,-36.85,0,*67
1508871845.13,6281,10.31,73928.8,-5.51,-35.65,-36.97,0,*62
1508871846.37,6282,10.31,73924.0,-5.53,-35.41,-36.85,0,*66
1508871847.57,6283,10.31,73928.8,-5.51,-35.47,-36.85,0,*63
1508871848.83,6284,10.31,73928.5,-5.53,-35.77,-37.21,0,*6A
1508871850.09,6285,10.31,73930.8,-5.53,-35.77,-37.21,0,*6B
1508871851.31,6286,10.31,73926.8,-5.51,-35.65,-37.03,0,*69
1508871852.6,6287,10.31,73926.0,-5.53,-35.95,-37.39,0,*6C
1508871853.83,6288,10.31,73930.3,-5.53,-36.07,-37.57,0,*63
1508871855.06,6289,10.31,73924.5,-5.53,-35.89,-37.45,0,*64
1508871856.32,6290,10.31,73928.0,-5.53,-36.07,-37.81,0,*61
1508871857.57,6291,10.31,73928.5,-5.53,-35.89,-37.39,0,*66
1508871858.82,6292,10.31,73930.3,-5.53,-35.53,-36.85,0,*64
1508871860.07,6293,10.31,73926.8,-5.53,-35.59,-37.21,0,*60
1508871861.33,6294,10.31,73930.5,-5.53,-35.71,-37.21,0,*6D
1508871862.58,6295,10.31,73928.8,-5.53,-35.71,-37.09,0,*66
1508871863.82,6296,10.31,73930.0,-5.53,-35.53,-36.85,0,*60
1508871865.08,6297,10.31,73928.3,-5.53,-35.89,-37.21,0,*69
1508871866.33,6298,10.31,73928.0,-5.53,-35.41,-36.85,0,*6D
1508871867.58,6299,10.31,73930.5,-5.53,-35.59,-36.91,0,*60
1508871868.82,6300,10.31,73928.8,-5.53,-35.53,-37.03,0,*61
1508871870.05,6301,10.31,73930.0,-5.53,-35.71,-37.03,0,*60
1508871871.31,6302,10.31,73930.0,-5.53,-35.89,-37.21,0,*64
1508871872.56,6303,10.31,73926.5,-5.53,-35.95,-37.45,0,*6A
1508871873.79,6304,10.31,73930.8,-5.53,-35.77,-37.27,0,*65
1508871875.05,6305,10.31,73932.3,-5.53,-35.71,-37.21,0,*64
1508871876.31,6306,10.31,73928.3,-5.53,-35.77,-37.39,0,*68
1508871877.58,6307,10.31,73928.8,-5.53,-36.13,-37.69,0,*6D
1508871878.87,6308,10.31,73934.3,-5.53,-35.95,-37.39,0,*6A
1508871880.1,6309,10.31,73932.8,-5.53,-36.31,-37.87,0,*63
1508871881.39,6310,10.31,73930.5,-5.53,-36.25,-37.81,0,*68
1508871882.67,6311,10.31,73928.0,-5.53,-36.13,-37.99,0,*65
1508871883.89,6312,10.31,73926.8,-5.57,-36.43,-38.05,0,*6D
1508871885.15,6313,10.31,73928.0,-5.53,-36.49,-38.05,0,*62
1508871886.4,6314,10.31,73924.8,-5.55,-36.49,-37.99,0,*69
1508871887.62,6315,10.31,73924.8,-5.55,-36.37,-38.05,0,*6B
1508871888.87,6316,10.31,73928.3,-5.57,-36.13,-37.87,0,*69
1508871890.15,6317,10.31,73926.5,-5.57,-36.13,-37.63,0,*62
1508871891.41,6318,10.31,73928.5,-5.57,-35.95,-37.27,0,*60
1508871892.66,6319,10.31,73926.5,-5.57,-35.95,-37.33,0,*64
1508871893.85,6320,10.31,73928.0,-5.55,-35.89,-37.45,0,*60
1508871895.11,6321,10.31,73930.8,-5.57,-36.01,-37.51,0,*65
1508871896.37,6322,10.31,73928.8,-5.57,-36.01,-37.63,0,*67
1508871897.57,6323,10.31,73930.5,-5.55,-36.01,-37.87,0,*6E
1508871898.85,6324,10.31,73924.5,-5.57,-36.13,-37.63,0,*62
1508871900.1,6325,10.31,73924.0,-5.55,-35.95,-37.69,0,*66
1508871901.36,6326,10.31,73930.5,-5.57,-36.13,-37.87,0,*6A
1508871902.61,6327,10.31,73926.8,-5.57,-36.01,-37.51,0,*63
1508871903.86,6328,10.31,73926.3,-5.57,-35.83,-37.45,0,*60
1508871905.09,6329,10.31,73928.3,-5.57,-35.77,-37.45,0,*6A
1508871906.34,6330,10.31,73924.5,-5.57,-35.83,-37.33,0,*68
1508871907.56,6331,10.31,73926.8,-5.57,-35.77,-37.45,0,*63
1508871908.82,6332,10.31,73924.8,-5.57,-36.01,-37.63,0,*66
1508871910.07,6333,10.31,73926.3,-5.57,-35.83,-37.45,0,*6A
1508871911.35,6334,10.31,73924.5,-5.57,-35.95,-37.63,0,*6E
1508871912.6,6335,10.31,73926.5,-5.57,-35.95,-37.45,0,*6B
1508871913.86,6336,10.31,73926.8,-5.57,-36.01,-37.63,0,*62
1508871915.12,6337,10.31,73924.8,-5.61,-36.01,-37.51,0,*67
1508871916.37,6338,10.31,73924.8,-5.61,-35.53,-37.15,0,*6C
1508871917.61,6339,10.31,73924.8,-5.55,-35.41,-36.91,0,*64
1508871918.87,6340,10.31,73922.8,-5.57,-35.47,-37.09,0,*6E
1508871920.09,6341,10.31,73926.5,-5.55,-35.89,-37.09,0,*6F
1508871921.34,6342,10.31,73926.3,-5.55,-35.53,-37.09,0,*6B
1508871922.53,6343,10.31,73922.5,-5.55,-35.77,-37.45,0,*64
1508871923.77,6344,10.31,73922.8,-5.55,-35.77,-37.39,0,*68
1508871925.02,6345,10.31,73924.3,-5.57,-35.95,-37.45,0,*6C
1508871926.27,6346,10.31,73922.5,-5.55,-35.95,-37.39,0,*66
1508871927.5,6347,10.31,73926.0,-5.55,-35.71,-37.21,0,*64
1508871928.69,6348,10.31,73924.3,-5.55,-35.71,-37.27,0,*6D
1508871929.93,6349,10.31,73922.5,-5.55,-35.77,-37.39,0,*65
1508871931.17,6350,10.31,73924.0,-5.55,-35.53,-36.91,0,*68
1508871932.39,6351,10.31,73922.5,-5.55,-35.71,-37.21,0,*63
1508871933.59,6352,10.31,73928.3,-5.55,-35.77,-37.45,0,*64
1508871934.85,6353,10.31,73924.0,-5.53,-35.77,-37.39,0,*68
1508871936.08,6354,10.31,73924.3,-5.53,-35.89,-37.45,0,*65
1508871937.3,6355,10.31,73924.5,-5.55,-35.89,-37.69,0,*6C
1508871938.5,6356,10.31,73928.3,-5.55,-35.89,-37.45,0,*61
1508871939.72,6357,10.31,73926.8,-5.55,-35.95,-37.45,0,*6D
1508871940.95,6358,10.31,73922.5,-5.53,-35.89,-37.57,0,*6A
1508871942.21,6359,10.31,73922.0,-5.53,-35.95,-37.87,0,*6B
1508871943.44,6360,10.31,73924.8,-5.55,-36.07,-37.81,0,*69
1508871944.67,6361,10.31,73922.3,-5.55,-35.89,-37.39,0,*6E
1508871945.9,6362,10.31,73922.8,-5.55,-35.77,-37.69,0,*69
1508871947.1,6363,10.31,73926.3,-5.55,-35.89,-37.57,0,*64
1508871948.38,6364,10.31,73924.3,-5.57,-35.95,-37.63,0,*6B
1508871949.61,6365,10.31,73926.8,-5.55,-35.71,-37.39,0,*6D
1508871950.81,6366,10.31,73924.3,-5.55,-35.89,-37.57,0,*61
1508871952.03,6367,10.31,73922.0,-5.55,-36.07,-37.69,0,*68
1508871953.26,6368,10.31,73924.8,-5.55,-35.95,-37.45,0,*61
1508871954.52,6369,10.31,73926.8,-5.53,-35.95,-37.57,0,*65
1508871955.77,6370,10.31,73922.0,-5.53,-36.07,-37.69,0,*68
1508871957.0,6371,10.31,73920.0,-5.53,-35.89,-37.57,0,*61
1508871958.28,6372,10.31,73922.3,-5.53,-35.95,-37.69,0,*62
1508871959.56,6373,10.31,73926.0,-5.53,-35.95,-37.69,0,*63
1508871960.81,6374,10.31,73922.8,-5.53,-35.71,-37.39,0,*6B
1508871962.04,6375,10.31,73922.3,-5.53,-35.89,-37.45,0,*66
1508871963.29,6376,10.31,73920.3,-5.53,-35.95,-37.45,0,*68
1508871964.52,6377,10.31,73922.5,-5.53,-35.77,-37.27,0,*61
1508871965.78,6378,10.31,73926.3,-5.53,-35.77,-37.39,0,*61
1508871967.04,6379,10.31,73920.5,-5.53,-35.95,-37.45,0,*67
1508871968.27,6380,10.31,73920.8,-5.53,-35.89,-37.57,0,*6F
1508871969.49,6381,10.31,73926.8,-5.53,-35.71,-37.27,0,*6E
1508871970.75,6382,10.31,73922.3,-5.53,-35.59,-37.21,0,*61
1508871972.0,6383,10.31,73924.0,-5.53,-35.71,-37.39,0,*63
1508871973.23,6384,10.31,73922.0,-5.53,-35.71,-37.27,0,*6B
1508871974.46,6385,10.31,73922.5,-5.53,-35.89,-37.45,0,*69
1508871975.71,6386,10.31,73924.8,-5.53,-36.13,-37.87,0,*64
1508871976.94,6387,10.31,73926.3,-5.51,-36.01,-37.51,0,*6F
1508871978.2,6388,10.31,73924.8,-5.53,-36.07,-37.81,0,*69
1508871979.43,6389,10.31,73920.3,-5.53,-35.89,-37.45,0,*65
1508871980.63,6390,10.31,73924.3,-5.51,-35.89,-37.75,0,*6C
1508871981.91,6391,10.31,73922.3,-5.53,-35.95,-37.69,0,*6F
1508871983.13,6392,10.31,73922.3,-5.51,-35.65,-37.33,0,*6E
1508871984.39,6393,10.31,73922.3,-5.53,-35.95,-37.57,0,*60
1508871985.62,6394,10.31,73922.0,-5.51,-35.89,-37.39,0,*60
1508871986.9,6395,10.31,73924.8,-5.53,-35.95,-37.69,0,*6B
1508871988.13,6396,10.31,73924.3,-5.51,-35.89,-37.63,0,*6D
1508871989.39,6397,10.31,73924.8,-5.51,-35.95,-37.51,0,*60
1508871990.59,6398,10.31,73924.8,-5.51,-36.01,-37.75,0,*67
1508871991.85,6399,10.31,73926.3,-5.53,-36.07,-37.81,0,*69
1508871993.11,6400,10.31,73924.8,-5.53,-36.13,-37.87,0,*6D
1508871994.36,6401,10.31,73922.3,-5.53,-36.13,-37.87,0,*6C
1508871995.59,6402,10.31,73924.3,-5.53,-36.31,-38.05,0,*6A
1508871996.82,6403,10.31,73926.3,-5.51,-36.07,-37.81,0,*6F
1508871998.05,6404,10.31,73924.0,-5.51,-36.19,-37.93,0,*64
1508871999.31,6405,10.31,73922.0,-5.53,-35.95,-37.57,0,*68
1508872000.57,6406,10.31,73926.3,-5.53,-36.07,-37.81,0,*68
1508872001.8,6407,10.31,73922.8,-5.51,-36.07,-37.81,0,*6B
1508872003.0,6408,10.31,73924.3,-5.51,-35.89,-37.75,0,*6A
1508872004.24,6409,10.31,73926.3,-5.51,-35.89,-37.63,0,*6C
1508872005.47,6410,10.31,73920.0,-5.51,-36.07,-37.81,0,*6D
1508872006.7,6411,10.31,73924.3,-5.51,-35.89,-37.63,0,*65
1508872007.95,6412,10.31,73924.5,-5.53,-36.07,-37.69,0,*6B
1508872009.19,6413,10.31,73924.3,-5.51,-36.07,-37.81,0,*6E
1508872010.42,6414,10.31,73926.0,-5.51,-36.01,-37.51,0,*62
1508872011.67,6415,10.31,73924.5,-5.53,-36.13,-37.87,0,*69
1508872012.93,6416,10.31,73926.5,-5.53,-36.13,-37.87,0,*6A
1508872014.16,6417,10.31,73926.8,-5.51,-36.31,-38.11,0,*69
1508872015.39,6418,10.31,73928.0,-5.51,-36.31,-37.99,0,*69
1508872016.62,6419,10.31,73922.3,-5.51,-36.07,-37.81,0,*64
1508872017.84,6420,10.31,73922.5,-5.51,-36.19,-37.93,0,*62
1508872019.13,6421,10.31,73926.0,-5.53,-36.37,-37.99,0,*67
1508872020.33,6422,10.31,73926.8,-5.51,-36.01,-37.75,0,*61
1508872021.56,6423,10.31,73926.5,-5.51,-36.01,-37.81,0,*6B
1508872022.8,6424,10.31,73926.8,-5.51,-36.07,-37.81,0,*6A
1508872024.0,6425,10.31,73926.0,-5.51,-36.01,-37.75,0,*66
1508872025.23,6426,10.31,73926.5,-5.51,-36.31,-38.11,0,*6B
1508872026.45,6427,10.31,73922.8,-5.51,-36.19,-37.93,0,*65
1508872027.68,6428,10.31,73924.5,-5.51,-36.31,-38.11,0,*65
1508872028.93,6429,10.31,73922.0,-5.53,-36.37,-38.17,0,*66
1508872030.17,6430,10.31,73922.5,-5.53,-36.55,-38.35,0,*6A
1508872031.42,6431,10.31,73924.5,-5.53,-36.49,-38.17,0,*66
1508872032.71,6432,10.31,73920.8,-5.53,-36.25,-37.99,0,*66
1508872033.94,6433,10.31,73922.3,-5.51,-36.07,-37.81,0,*6C
1508872035.18,6434,10.31,73924.8,-5.53,-36.07,-37.87,0,*6F
1508872036.43,6435,10.31,73926.0,-5.53,-36.25,-38.05,0,*6B
1508872037.67,6436,10.31,73924.0,-5.53,-36.55,-38.43,0,*6D
1508872038.92,6437,10.31,73926.8,-5.53,-36.37,-38.17,0,*69
1508872040.15,6438,10.31,73926.0,-5.51,-36.07,-37.81,0,*67
1508872041.38,6439,10.31,73924.0,-5.51,-36.19,-37.93,0,*6A
1508872042.61,6440,10.31,73924.3,-5.53,-36.07,-37.57,0,*61
1508872043.84,6441,10.31,73924.3,-5.51,-36.01,-37.63,0,*63
1508872045.13,6442,10.31,73926.8,-5.53,-36.25,-37.99,0,*61
1508872046.42,6443,10.31,73924.5,-5.53,-36.25,-37.99,0,*60
1508872047.7,6444,10.31,73928.0,-5.53,-36.25,-37.81,0,*6E
1508872048.93,6445,10.31,73924.0,-5.51,-36.01,-37.51,0,*66
1508872050.14,6446,10.31,73924.8,-5.51,-35.89,-37.57,0,*60
1508872051.39,6447,10.31,73924.0,-5.51,-36.13,-37.99,0,*63
1508872052.62,6448,10.31,73924.3,-5.51,-36.19,-37.93,0,*6C
1508872053.84,6449,10.31,73924.5,-5.53,-36.31,-38.05,0,*65
1508872055.1,6450,10.31,73924.3,-5.53,-36.07,-37.69,0,*6D
1508872056.35,6451,10.31,73924.3,-5.53,-35.71,-37.39,0,*6B
1508872057.59,6452,10.31,73924.0,-5.51,-35.89,-37.63,0,*62
1508872058.82,6453,10.31,73924.0,-5.51,-35.89,-37.81,0,*6F
1508872060.05,6454,10.31,73924.0,-5.51,-36.01,-37.63,0,*67
1508872061.26,6455,10.31,73922.3,-5.51,-36.01,-37.75,0,*61
1508872062.54,6456,10.31,73928.3,-5.53,-36.25,-37.99,0,*64
1508872063.8,6457,10.31,73926.5,-5.51,-35.83,-37.51,0,*6C
1508872065.03,6458,10.31,73924.3,-5.51,-35.89,-37.51,0,*69
1508872066.27,6459,10.31,73926.8,-5.51,-35.89,-37.63,0,*69
1508872067.49,6460,10.31,73926.8,-5.49,-35.89,-37.75,0,*6D
1508872068.77,6461,10.31,73926.5,-5.49,-36.25,-38.11,0,*64
1508872070.02,6462,10.31,73926.3,-5.49,-36.19,-37.93,0,*6D
1508872071.3,6463,10.31,73926.3,-5.49,-35.83,-37.51,0,*62
1508872072.56,6464,10.31,73924.0,-5.49,-35.89,-37.81,0,*62
1508872073.81,6465,10.31,73924.3,-5.49,-36.07,-37.81,0,*66
1508872075.07,6466,10.31,73924.8,-5.49,-36.07,-37.81,0,*65
1508872076.33,6467,10.31,73924.8,-5.49,-36.01,-37.81,0,*62
1508872077.58,6468,10.31,73926.0,-5.49,-35.89,-37.63,0,*62
1508872078.87,6469,10.31,73926.8,-5.49,-36.25,-37.99,0,*63
1508872080.1,6470,10.31,73928.3,-5.49,-36.01,-37.75,0,*6F
1508872081.33,6471,10.31,73924.3,-5.45,-36.01,-37.87,0,*6F
1508872082.58,6472,10.31,73924.3,-5.49,-36.19,-37.93,0,*6C
1508872083.83,6473,10.31,73926.0,-5.49,-36.19,-37.93,0,*6D
1508872085.11,6474,10.31,73926.8,-5.49,-36.25,-37.99,0,*6F
1508872086.35,6475,10.31,73924.3,-5.45,-36.19,-37.87,0,*62
1508872087.58,6476,10.31,73924.0,-5.45,-36.01,-37.75,0,*65
1508872088.83,6477,10.31,73926.8,-5.49,-36.01,-37.81,0,*63
1508872090.11,6478,10.31,73926.0,-5.45,-35.95,-37.69,0,*68
1508872091.34,6479,10.31,73926.8,-5.45,-36.19,-37.87,0,*6E
1508872092.58,6480,10.31,73928.8,-5.45,-36.01,-37.75,0,*6C
1508872093.83,6481,10.31,73926.0,-5.45,-35.95,-37.57,0,*63
1508872095.09,6482,10.31,73930.5,-5.45,-36.01,-37.69,0,*63
1508872096.32,6483,10.31,73928.0,-5.45,-36.01,-37.75,0,*6F
1508872097.59,6484,10.31,73924.0,-5.45,-36.37,-38.11,0,*60
1508872098.85,6485,10.31,73926.3,-5.49,-36.07,-37.93,0,*6B
1508872100.08,6486,10.31,73926.5,-5.45,-36.01,-37.57,0,*6A
1508872101.34,6487,10.31,73924.8,-5.49,-36.31,-37.99,0,*66
1508872102.59,6488,10.31,73926.3,-5.45,-35.95,-37.75,0,*6A
1508872103.82,6489,10.31,73924.5,-5.45,-36.01,-37.75,0,*65